CDT,Max TemperatureF,Mean TemperatureF,Min TemperatureF,Max Dew PointF,MeanDew PointF,Min DewpointF,Max Humidity, Mean Humidity, Min Humidity, Max Sea Level PressureIn, Mean Sea Level PressureIn, Min Sea Level PressureIn, Max VisibilityMiles, Mean VisibilityMiles, Min VisibilityMiles, Max Wind SpeedMPH, Mean Wind SpeedMPH, Max Gust SpeedMPH,PrecipitationIn, CloudCover, Events, WindDirDegrees
2012-10-1,62,55,48,53,49,46,93,77,60,29.87,29.80,29.74,10,10,8,15,8,22,0.02,4,Rain,27
2012-10-2,58,56,53,57,55,50,100,90,80,29.86,29.80,29.73,10,5,1,18,9,24,0.12,8,Rain,2
2012-10-3,73,65,56,57,55,49,100,72,44,30.08,29.96,29.86,10,6,2,15,6,21,0.06,6,Rain,207
2012-10-4,78,65,52,59,56,50,100,74,48,30.17,30.11,30.08,10,10,8,17,9,25,0.00,2,,211
2012-10-5,53,45,36,50,44,36,100,90,80,30.21,30.16,30.11,10,8,2,21,9,24,1.07,7,Rain-Thunderstorm,344
2012-10-6,50,42,33,36,34,33,100,78,56,30.22,30.19,30.16,10,10,10,17,10,22,0.00,1,,306
2012-10-7,51,43,35,36,33,29,92,67,42,30.25,30.21,30.18,10,10,10,15,6,20,0.00,3,,298
2012-10-8,57,44,30,37,34,31,100,71,41,30.24,30.17,30.09,10,10,10,14,6,20,0.00,0,,182
2012-10-9,62,52,42,45,42,37,89,69,48,30.09,30.01,29.92,10,10,1,21,10,25,0.00,1,,193
2012-10-10,54,47,39,45,37,28,100,71,41,30.24,30.13,29.98,10,10,8,24,11,32,T,3,Rain,307
2012-10-11,62,51,39,41,35,32,76,58,39,30.27,30.22,30.15,10,10,10,16,7,22,0.00,0,,197
2012-10-12,61,52,43,45,43,40,92,74,55,30.38,30.30,30.19,10,10,10,21,8,25,0.00,1,,79
2012-10-13,72,61,50,63,55,41,100,84,68,30.25,30.07,29.89,10,9,3,18,12,26,0.00,4,,173
2012-10-14,72,61,50,64,58,46,93,77,61,29.88,29.74,29.61,10,9,5,35,16,43,0.14,6,Rain,218
2012-10-15,63,52,41,48,44,40,100,72,43,29.99,29.95,29.88,10,10,7,18,8,32,0.00,0,,294
2012-10-16,71,57,42,54,47,40,96,73,49,29.97,29.80,29.66,10,10,10,25,12,31,0.00,0,,165
2012-10-17,70,61,52,59,54,49,100,79,57,29.68,29.50,29.36,10,8,1,25,13,35,1.20,6,Rain-Thunderstorm,194
2012-10-18,59,53,47,50,40,32,96,68,39,29.62,29.55,29.49,10,10,10,21,10,33,T,4,Rain,228
2012-10-19,50,48,45,46,45,41,93,84,74,29.73,29.61,29.50,10,9,2,20,10,26,0.07,8,Rain,249
2012-10-20,56,51,45,47,45,41,100,82,64,29.96,29.84,29.74,10,10,6,15,6,20,T,7,,260
2012-10-21,70,57,43,58,51,43,100,78,55,30.01,29.98,29.95,10,10,8,16,9,22,0.00,2,,155
2012-10-22,71,67,62,61,57,50,93,72,51,30.05,29.97,29.90,10,10,4,20,11,28,0.17,4,Rain-Thunderstorm,179
2012-10-23,69,64,58,61,57,51,93,76,58,30.02,29.96,29.92,10,8,2,20,9,28,0.71,6,Rain-Thunderstorm,183
2012-10-24,77,69,60,65,60,55,84,76,68,30.01,29.96,29.91,10,10,10,18,10,25,0.00,0,,175
2012-10-25,77,61,44,62,55,44,100,80,60,30.07,29.92,29.81,10,9,3,29,15,36,0.42,3,Rain,211
2012-10-26,48,42,35,43,36,33,92,76,60,30.31,30.23,30.09,10,10,5,29,15,36,0.03,4,Rain,352
2012-10-27,50,41,32,38,34,31,96,79,61,30.28,30.24,30.20,10,10,10,23,12,26,0.00,1,,356
2012-10-28,48,40,32,36,32,30,96,75,53,30.23,30.22,30.19,10,10,9,20,11,25,0.00,2,,356
2012-10-29,54,43,32,38,33,29,96,70,44,30.25,30.18,30.04,10,10,10,25,15,31,0.00,1,,344
2012-10-30,50,43,36,29,27,25,70,56,42,30.02,29.87,29.80,10,10,10,30,19,37,0.00,2,,328
2012-10-31,49,40,30,33,28,24,85,68,50,29.93,29.89,29.83,10,10,10,21,13,26,0.00,0,,300